Powrót do katalogu

COSMOS 249 DEB

AktywnyLEO
NORAD 3757·DEBRIS·🇷🇺 Russia

Wystrzelony Oct 20, 1968 z Baikonur Cosmodrome

Loading…

Następne Przeloty (najbliższe 24 godziny)

TLE

ŚwieżeSource: Space-Track

Epoka: Sep 14, 2026, 02:20 UTC

1 03757U 68091AU  26257.09741119  .00006043  00000-0  65265-3 0  9990
2 03757  61.9715 285.8192 0351596 130.3085 232.9276 14.53306042846835

Śledź COSMOS 249 DEB w czasie rzeczywistym z AllMySat

Download on the App Store